TimeCDT,TemperatureF,Dew PointF,Humidity,Sea Level PressureIn,VisibilityMPH,Wind Direction,Wind SpeedMPH,Gust SpeedMPH,PrecipitationIn,Events,Conditions,WindDirDegrees,DateUTC
12:15 AM,29.8,15.6,56,30.32,10.0,NW,6.9,-,N/A,,Overcast,320,2013-03-14 05:15:00
12:35 AM,29.7,15.6,56,30.33,10.0,NW,6.9,-,N/A,,Mostly Cloudy,320,2013-03-14 05:35:00
12:55 AM,29.3,15.8,57,30.33,10.0,North,5.8,-,N/A,,Mostly Cloudy,360,2013-03-14 05:55:00
1:15 AM,29.3,16.7,59,30.33,10.0,NNW,4.6,-,N/A,,Overcast,330,2013-03-14 06:15:00
1:55 AM,28.8,17.2,62,30.34,10.0,NW,6.9,-,N/A,,Overcast,310,2013-03-14 06:55:00
2:15 AM,28.4,17.4,63,30.33,10.0,NNW,5.8,-,N/A,,Overcast,330,2013-03-14 07:15:00
2:35 AM,28.0,17.6,65,30.33,10.0,NNW,4.6,-,N/A,,Mostly Cloudy,330,2013-03-14 07:35:00
2:55 AM,28.2,17.4,64,30.33,10.0,NW,5.8,-,N/A,,Mostly Cloudy,320,2013-03-14 07:55:00
3:15 AM,27.5,17.6,66,30.33,10.0,NNW,5.8,-,N/A,,Scattered Clouds,330,2013-03-14 08:15:00
3:35 AM,27.5,17.6,66,30.33,10.0,NNW,3.5,-,N/A,,Scattered Clouds,330,2013-03-14 08:35:00
3:55 AM,27.1,17.2,66,30.34,10.0,NNW,3.5,-,N/A,,Clear,330,2013-03-14 08:55:00
4:15 AM,27.0,17.6,68,30.35,10.0,NW,3.5,-,N/A,,Scattered Clouds,310,2013-03-14 09:15:00
4:35 AM,26.2,18.1,71,30.35,10.0,Calm,Calm,-,N/A,,Scattered Clouds,0,2013-03-14 09:35:00
4:55 AM,26.4,17.4,69,30.36,10.0,NNW,5.8,-,N/A,,Scattered Clouds,340,2013-03-14 09:55:00
5:15 AM,25.9,17.2,70,30.36,10.0,Calm,Calm,-,N/A,,Clear,0,2013-03-14 10:15:00
5:35 AM,25.5,17.2,71,30.36,10.0,Calm,Calm,-,N/A,,Clear,0,2013-03-14 10:35:00
5:55 AM,24.8,16.9,72,30.36,10.0,Calm,Calm,-,N/A,,Clear,0,2013-03-14 10:55:00
6:15 AM,24.4,17.6,75,30.37,10.0,Calm,Calm,-,N/A,,Clear,0,2013-03-14 11:15:00
6:35 AM,23.7,18.3,80,30.37,10.0,Calm,Calm,-,N/A,,Clear,0,2013-03-14 11:35:00
6:55 AM,23.7,18.1,79,30.37,10.0,Calm,Calm,-,N/A,,Clear,0,2013-03-14 11:55:00
7:15 AM,23.4,18.7,82,30.37,10.0,Calm,Calm,-,N/A,,Clear,0,2013-03-14 12:15:00
7:35 AM,24.1,19.2,82,30.38,10.0,Calm,Calm,-,N/A,,Clear,0,2013-03-14 12:35:00
7:55 AM,25.3,18.3,75,30.37,10.0,Calm,Calm,-,N/A,,Clear,0,2013-03-14 12:55:00
8:15 AM,26.2,18.0,71,30.38,10.0,Calm,Calm,-,N/A,,Clear,0,2013-03-14 13:15:00
8:35 AM,27.1,17.8,68,30.39,10.0,Calm,Calm,-,N/A,,Clear,0,2013-03-14 13:35:00
8:55 AM,28.6,18.0,64,30.39,10.0,Calm,Calm,-,N/A,,Clear,0,2013-03-14 13:55:00
9:15 AM,29.8,17.4,60,30.39,10.0,Calm,Calm,-,N/A,,Clear,0,2013-03-14 14:15:00
9:35 AM,30.7,17.4,58,30.38,10.0,Calm,Calm,-,N/A,,Clear,0,2013-03-14 14:35:00
9:55 AM,31.8,17.4,55,30.37,10.0,South,3.5,-,N/A,,Clear,170,2013-03-14 14:55:00
10:15 AM,32.0,16.7,53,30.36,10.0,Calm,Calm,-,N/A,,Clear,0,2013-03-14 15:15:00
10:35 AM,33.8,18.0,52,30.36,10.0,NE,3.5,-,N/A,,Clear,40,2013-03-14 15:35:00
10:55 AM,34.0,17.2,50,30.36,10.0,Calm,Calm,-,N/A,,Clear,0,2013-03-14 15:55:00
11:15 AM,35.2,16.5,47,30.36,10.0,Calm,Calm,-,N/A,,Clear,0,2013-03-14 16:15:00
11:35 AM,36.9,17.4,45,30.35,10.0,ENE,4.6,-,N/A,,Clear,70,2013-03-14 16:35:00
11:55 AM,37.2,17.2,44,30.34,10.0,ENE,3.5,-,N/A,,Clear,60,2013-03-14 16:55:00
12:15 PM,39.0,16.5,40,30.33,10.0,Calm,Calm,-,N/A,,Clear,0,2013-03-14 17:15:00
12:35 PM,40.6,16.5,38,30.32,10.0,NNE,3.5,-,N/A,,Clear,20,2013-03-14 17:35:00
12:55 PM,42.1,16.0,35,30.32,10.0,Calm,Calm,-,N/A,,Clear,0,2013-03-14 17:55:00
1:15 PM,42.8,12.0,29,30.31,10.0,WNW,4.6,-,N/A,,Clear,300,2013-03-14 18:15:00
1:35 PM,42.6,11.7,28,30.30,10.0,WNW,3.5,-,N/A,,Clear,300,2013-03-14 18:35:00
1:55 PM,45.5,12.9,27,30.29,10.0,West,5.8,-,N/A,,Clear,260,2013-03-14 18:55:00
2:15 PM,44.6,12.0,27,30.28,10.0,West,4.6,-,N/A,,Clear,280,2013-03-14 19:15:00
2:35 PM,44.6,12.4,27,30.28,10.0,NNW,8.1,-,N/A,,Clear,330,2013-03-14 19:35:00
2:55 PM,45.0,13.6,28,30.26,10.0,NNW,8.1,-,N/A,,Clear,330,2013-03-14 19:55:00
3:15 PM,45.5,13.3,27,30.26,10.0,NNE,4.6,-,N/A,,Mostly Cloudy,30,2013-03-14 20:15:00
3:35 PM,45.1,13.8,28,30.26,10.0,NNW,3.5,-,N/A,,Overcast,340,2013-03-14 20:35:00
3:55 PM,46.0,13.6,27,30.25,10.0,West,4.6,-,N/A,,Mostly Cloudy,280,2013-03-14 20:55:00
4:15 PM,46.9,14.5,27,30.24,10.0,West,8.1,-,N/A,,Mostly Cloudy,280,2013-03-14 21:15:00
4:35 PM,47.7,15.3,27,30.24,10.0,West,5.8,-,N/A,,Scattered Clouds,280,2013-03-14 21:35:00
4:55 PM,45.9,13.8,28,30.23,10.0,WSW,3.5,-,N/A,,Scattered Clouds,240,2013-03-14 21:55:00
5:15 PM,46.2,13.8,27,30.23,10.0,West,6.9,-,N/A,,Overcast,270,2013-03-14 22:15:00
5:35 PM,45.7,13.1,27,30.23,10.0,West,6.9,-,N/A,,Overcast,280,2013-03-14 22:35:00
5:55 PM,45.5,12.7,27,30.23,10.0,WSW,4.6,-,N/A,,Overcast,240,2013-03-14 22:55:00
6:15 PM,44.8,12.4,27,30.23,10.0,West,5.8,-,N/A,,Overcast,260,2013-03-14 23:15:00
6:35 PM,44.4,12.7,28,30.23,10.0,WNW,4.6,-,N/A,,Overcast,300,2013-03-14 23:35:00
6:55 PM,44.1,11.1,26,30.23,10.0,Calm,Calm,-,N/A,,Overcast,0,2013-03-14 23:55:00
7:15 PM,43.7,13.3,29,30.24,10.0,NW,4.6,-,N/A,,Overcast,310,2013-03-15 00:15:00
7:35 PM,43.7,12.4,28,30.24,10.0,NW,3.5,-,N/A,,Overcast,320,2013-03-15 00:35:00
7:55 PM,42.1,12.7,30,30.24,10.0,WNW,3.5,-,N/A,,Mostly Cloudy,300,2013-03-15 00:55:00
8:15 PM,41.5,12.9,31,30.24,10.0,Calm,Calm,-,N/A,,Overcast,0,2013-03-15 01:15:00
8:35 PM,40.5,15.4,36,30.24,10.0,Calm,Calm,-,N/A,,Overcast,0,2013-03-15 01:35:00
8:55 PM,39.7,18.7,43,30.24,10.0,Calm,Calm,-,N/A,,Overcast,0,2013-03-15 01:55:00
9:15 PM,38.7,21.2,50,30.25,10.0,Calm,Calm,-,N/A,,Overcast,0,2013-03-15 02:15:00
9:35 PM,38.3,22.1,52,30.25,10.0,WSW,3.5,-,N/A,,Overcast,250,2013-03-15 02:35:00
9:55 PM,40.5,17.2,39,30.25,10.0,WNW,3.5,-,N/A,,Overcast,290,2013-03-15 02:55:00
10:15 PM,40.5,18.1,41,30.25,10.0,WNW,3.5,-,N/A,,Overcast,290,2013-03-15 03:15:00
10:35 PM,40.5,19.2,43,30.24,10.0,West,3.5,-,N/A,,Overcast,280,2013-03-15 03:35:00
10:55 PM,40.5,18.9,42,30.25,10.0,Calm,Calm,-,N/A,,Overcast,0,2013-03-15 03:55:00
11:15 PM,39.7,21.7,49,30.24,10.0,Calm,Calm,-,N/A,,Overcast,0,2013-03-15 04:15:00
11:35 PM,40.1,20.8,46,30.25,10.0,Calm,Calm,-,N/A,,Overcast,0,2013-03-15 04:35:00
11:55 PM,40.3,20.5,45,30.24,10.0,Calm,Calm,-,N/A,,Overcast,0,2013-03-15 04:55:00